| time (UTC) | temp F | wind direction | speed MPH | gust MPH | rain 1hr in | rain 24hr in | rain mn in | humidity % | barometer mb |
| 20260831134835 | 62 | 198 | 1.0 | 2.0 | 0.00 | 0.44 | 0.44 | 97 | 1007.7 |
| 20260831134331 | 62 | 209 | 1.0 | 3.0 | 0.00 | 0.44 | 0.44 | 97 | 1007.5 |
| 20260831133831 | 62 | 235 | 1.0 | 1.0 | 0.00 | 0.44 | 0.44 | 97 | 1007.6 |
| 20260831133330 | 62 | 197 | 0.0 | 3.0 | 0.00 | 0.44 | 0.44 | 97 | 1007.4 |
| 20260831132825 | 62 | 275 | 1.0 | 2.0 | 0.00 | 0.44 | 0.44 | 97 | 1007.6 |
| 20260831132321 | 62 | 318 | 2.0 | 3.0 | 0.00 | 0.44 | 0.44 | 97 | 1007.4 |
| 20260831131815 | 62 | 208 | 1.0 | 2.0 | 0.00 | 0.44 | 0.44 | 97 | 1007.4 |
| 20260831131311 | 61 | 204 | 0.0 | 2.0 | 0.00 | 0.44 | 0.44 | 97 | 1007.4 |
| 20260831130806 | 62 | 208 | 0.0 | 1.0 | 0.00 | 0.44 | 0.44 | 97 | 1007.2 |
| 20260831130301 | 62 | 278 | 2.0 | 3.0 | 0.00 | 0.44 | 0.44 | 97 | 1007.2 |
| 20260831125800 | 62 | 227 | 1.0 | 1.0 | 0.00 | 0.44 | 0.44 | 97 | 1007.0 |
| 20260831125256 | 62 | 210 | 0.0 | 1.0 | 0.00 | 0.44 | 0.44 | 97 | 1007.2 |
| 20260831124750 | 62 | 214 | 0.0 | 1.0 | 0.00 | 0.44 | 0.44 | 97 | 1007.2 |
| 20260831124247 | 62 | 288 | 1.0 | 3.0 | 0.00 | 0.44 | 0.44 | 97 | 1007.2 |
| 20260831123746 | 62 | 211 | 1.0 | 1.0 | 0.00 | 0.44 | 0.44 | 97 | 1007.0 |
| 20260831123245 | 62 | 200 | 1.0 | 1.0 | 0.00 | 0.44 | 0.44 | 97 | 1006.9 |
| 20260831122739 | 62 | 155 | 0.0 | 5.0 | 0.00 | 0.44 | 0.44 | 97 | 1007.2 |
| 20260831122235 | 62 | 215 | 0.0 | 2.0 | 0.00 | 0.44 | 0.44 | 97 | 1006.9 |
| 20260831121734 | 62 | 271 | 2.0 | 2.0 | 0.00 | 0.44 | 0.44 | 97 | 1006.9 |
| 20260831121231 | 62 | 215 | 0.0 | 0.0 | 0.00 | 0.44 | 0.44 | 97 | 1006.8 |
| 20260831120726 | 62 | 230 | 1.0 | 2.0 | 0.00 | 0.44 | 0.44 | 97 | 1006.9 |
| 20260831120221 | 62 | 227 | 0.0 | 3.0 | 0.00 | 0.44 | 0.44 | 97 | 1007.0 |
| 20260831115717 | 62 | 217 | 0.0 | 1.0 | 0.00 | 0.44 | 0.44 | 97 | 1006.7 |
| 20260831115213 | 62 | 220 | 0.0 | 2.0 | 0.00 | 0.44 | 0.44 | 97 | 1006.7 |
| 20260831114712 | 63 | 221 | 0.0 | 1.0 | 0.00 | 0.44 | 0.44 | 97 | 1006.6 |
| 20260831114211 | 63 | 227 | 0.0 | 1.0 | 0.00 | 0.44 | 0.44 | 97 | 1006.5 |
| 20260831113707 | 63 | 218 | 0.0 | 2.0 | 0.00 | 0.44 | 0.44 | 97 | 1006.3 |
| 20260831113201 | 63 | 209 | 0.0 | 2.0 | 0.00 | 0.44 | 0.44 | 97 | 1006.2 |
| 20260831112700 | 63 | 219 | 0.0 | 2.0 | 0.00 | 0.44 | 0.44 | 97 | 1006.2 |
| 20260831112156 | 63 | 272 | 1.0 | 2.0 | 0.00 | 0.44 | 0.44 | 97 | 1005.9 |
| 20260831111651 | 64 | 223 | 1.0 | 1.0 | 0.00 | 0.44 | 0.44 | 97 | 1005.9 |
| 20260831111148 | 64 | 218 | 0.0 | 1.0 | 0.00 | 0.44 | 0.44 | 97 | 1005.9 |
| 20260831110643 | 64 | 166 | 1.0 | 3.0 | 0.05 | 0.44 | 0.44 | 97 | 1005.7 |
| 20260831110138 | 64 | 208 | 0.0 | 1.0 | 0.05 | 0.44 | 0.44 | 97 | 1005.8 |
| 20260831105637 | 64 | 255 | 1.0 | 1.0 | 0.00 | 0.43 | 0.43 | 97 | 1005.8 |
| 20260831105132 | 65 | 207 | 0.0 | 1.0 | 0.00 | 0.43 | 0.43 | 97 | 1005.9 |
| 20260831104627 | 65 | 220 | 0.0 | 1.0 | 0.00 | 0.43 | 0.43 | 97 | 1005.6 |
| 20260831104124 | 65 | 213 | 0.0 | 0.0 | 0.00 | 0.43 | 0.43 | 97 | 1005.6 |
| 20260831103619 | 65 | 214 | 0.0 | 1.0 | 0.00 | 0.43 | 0.43 | 97 | 1005.6 |
| 20260831103115 | 65 | 215 | 0.0 | 0.0 | 0.00 | 0.43 | 0.43 | 97 | 1005.5 |
| 20260831102614 | 65 | 219 | 1.0 | 1.0 | 0.00 | 0.43 | 0.43 | 97 | 1005.6 |
| 20260831102109 | 65 | 202 | 0.0 | 1.0 | 0.00 | 0.43 | 0.43 | 97 | 1005.4 |
| 20260831101609 | 65 | 206 | 0.0 | 2.0 | 0.00 | 0.43 | 0.43 | 96 | 1005.6 |
| 20260831101106 | 66 | 213 | 1.0 | 2.0 | 0.00 | 0.43 | 0.43 | 96 | 1005.7 |
| 20260831100602 | 66 | 204 | 1.0 | 2.0 | 0.00 | 0.43 | 0.43 | 96 | 1005.5 |
| 20260831100058 | 66 | 256 | 1.0 | 1.0 | 0.00 | 0.43 | 0.43 | 96 | 1005.6 |
| 20260831095555 | 66 | 231 | 0.0 | 5.0 | 0.00 | 0.43 | 0.43 | 96 | 1005.6 |
| 20260831095050 | 66 | 212 | 0.0 | 5.0 | 0.00 | 0.43 | 0.43 | 96 | 1005.5 |
| 20260831094546 | 67 | 178 | 1.0 | 3.0 | 0.00 | 0.43 | 0.43 | 96 | 1005.3 |
| 20260831094042 | 67 | 232 | 0.0 | 2.0 | 0.00 | 0.43 | 0.43 | 96 | 1005.5 |
| 20260831093537 | 67 | 258 | 2.0 | 2.0 | 0.00 | 0.43 | 0.43 | 96 | 1005.3 |
| 20260831093033 | 67 | 234 | 1.0 | 3.0 | 0.07 | 0.43 | 0.43 | 96 | 1005.6 |
| 20260831092529 | 67 | 214 | 0.0 | 0.0 | 0.14 | 0.43 | 0.43 | 96 | 1005.5 |
| 20260831092025 | 67 | 213 | 0.0 | 0.0 | 0.07 | 0.42 | 0.42 | 96 | 1005.4 |
| 20260831091524 | 67 | 211 | 0.0 | 0.0 | 0.00 | 0.41 | 0.41 | 96 | 1005.4 |
| 20260831091020 | 67 | 208 | 0.0 | 0.0 | 0.00 | 0.41 | 0.41 | 96 | 1005.4 |
| 20260831090515 | 67 | 211 | 0.0 | 0.0 | 0.00 | 0.41 | 0.41 | 96 | 1005.3 |
| 20260831090011 | 67 | 213 | 0.0 | 0.0 | 0.00 | 0.41 | 0.41 | 96 | 1005.3 |
| 20260831085506 | 67 | 216 | 0.0 | 0.0 | 0.00 | 0.41 | 0.41 | 96 | 1005.3 |
| 20260831085001 | 67 | 198 | 0.0 | 0.0 | 0.00 | 0.41 | 0.41 | 96 | 1005.3 |
| 20260831084457 | 67 | 213 | 0.0 | 0.0 | 0.00 | 0.41 | 0.41 | 96 | 1005.2 |
| 20260831083954 | 67 | 213 | 0.0 | 0.0 | 0.00 | 0.41 | 0.41 | 96 | 1005.5 |
| 20260831083453 | 67 | 208 | 0.0 | 0.0 | 0.00 | 0.41 | 0.41 | 96 | 1005.4 |
| 20260831082948 | 67 | 212 | 0.0 | 0.0 | 0.00 | 0.41 | 0.41 | 96 | 1005.4 |
| 20260831082448 | 67 | 200 | 0.0 | 0.0 | 0.00 | 0.41 | 0.41 | 96 | 1005.1 |
| 20260831081942 | 67 | 195 | 0.0 | 2.0 | 0.00 | 0.41 | 0.41 | 96 | 1005.4 |
| 20260831081438 | 67 | 211 | 0.0 | 1.0 | 0.05 | 0.41 | 0.41 | 96 | 1005.3 |
| 20260831080935 | 67 | 195 | 0.0 | 1.0 | 0.05 | 0.41 | 0.41 | 96 | 1005.5 |
| 20260831080434 | 67 | 215 | 0.0 | 1.0 | 0.00 | 0.40 | 0.40 | 96 | 1005.6 |
| 20260831075930 | 67 | 222 | 0.0 | 1.0 | 0.00 | 0.40 | 0.40 | 96 | 1005.6 |
| 20260831075426 | 67 | 200 | 0.0 | 1.0 | 0.00 | 0.40 | 0.40 | 95 | 1005.5 |
| 20260831074921 | 67 | 213 | 0.0 | 2.0 | 0.00 | 0.40 | 0.40 | 95 | 1005.6 |
| 20260831074420 | 67 | 205 | 0.0 | 1.0 | 0.00 | 0.40 | 0.40 | 95 | 1005.5 |
| 20260831073915 | 67 | 192 | 0.0 | 0.0 | 0.00 | 0.40 | 0.40 | 95 | 1005.5 |
| 20260831073415 | 67 | 221 | 0.0 | 2.0 | 0.07 | 0.40 | 0.40 | 95 | 1004.8 |
| 20260831072909 | 67 | 211 | 0.0 | 2.0 | 0.12 | 0.40 | 0.40 | 95 | 1004.2 |
| 20260831072405 | 67 | 197 | 0.0 | 5.0 | 0.24 | 0.39 | 0.39 | 95 | 1003.7 |
| 20260831071901 | 67 | 71 | 1.0 | 5.0 | 0.42 | 0.38 | 0.38 | 95 | 1003.0 |
| 20260831071400 | 67 | 201 | 0.0 | 1.0 | 0.42 | 0.35 | 0.35 | 95 | 1004.1 |
| 20260831070855 | 67 | 215 | 0.0 | 0.0 | 0.31 | 0.31 | 0.31 | 95 | 1004.8 |
| 20260831070354 | 67 | 215 | 0.0 | 0.0 | 0.24 | 0.28 | 0.28 | 94 | 1005.2 |
| 20260831065853 | 67 | 209 | 0.0 | 0.0 | 0.28 | 0.26 | 0.26 | 94 | 1005.2 |
| 20260831065351 | 67 | 208 | 0.0 | 1.0 | 0.28 | 0.24 | 0.24 | 94 | 1005.5 |
| 20260831064846 | 67 | 208 | 0.0 | 0.0 | 0.19 | 0.21 | 0.21 | 94 | 1005.9 |
| 20260831064342 | 67 | 214 | 0.0 | 0.0 | 0.19 | 0.19 | 0.19 | 94 | 1006.0 |
| 20260831063838 | 67 | 230 | 0.0 | 1.0 | 0.24 | 0.18 | 0.18 | 94 | 1006.2 |
| 20260831063333 | 67 | 212 | 0.0 | 0.0 | 0.24 | 0.16 | 0.16 | 93 | 1006.3 |
| 20260831062832 | 68 | 168 | 0.0 | 1.0 | 0.19 | 0.14 | 0.14 | 93 | 1006.3 |
| 20260831062328 | 68 | 208 | 0.0 | 1.0 | 0.07 | 0.12 | 0.12 | 93 | 1006.3 |
| 20260831061826 | 68 | 203 | 0.0 | 1.0 | 0.00 | 0.11 | 0.11 | 93 | 1006.5 |
| 20260831061326 | 68 | 206 | 1.0 | 2.0 | 0.12 | 0.11 | 0.11 | 92 | 1006.3 |
| 20260831060822 | 68 | 196 | 2.0 | 2.0 | 0.24 | 0.11 | 0.11 | 92 | 1006.3 |
| 20260831060321 | 68 | 212 | 0.0 | 1.0 | 0.24 | 0.09 | 0.09 | 92 | 1006.5 |
| 20260831055821 | 68 | 232 | 0.0 | 2.0 | 0.12 | 0.07 | 0.07 | 91 | 1006.4 |
| 20260831055317 | 68 | 194 | 0.0 | 1.0 | 0.07 | 0.05 | 0.05 | 90 | 1006.5 |
| 20260831054812 | 69 | 205 | 2.0 | 2.0 | 0.12 | 0.05 | 0.05 | 90 | 1006.0 |
| 20260831054307 | 69 | 174 | 2.0 | 3.0 | 0.12 | 0.04 | 0.04 | 89 | 1006.0 |
| 20260831053806 | 70 | 181 | 0.0 | 5.0 | 0.12 | 0.03 | 0.03 | 87 | 1005.7 |
| 20260831053305 | 70 | 206 | 2.0 | 7.0 | 0.12 | 0.02 | 0.02 | 86 | 1005.7 |
| 20260831052759 | 70 | 183 | 1.0 | 3.0 | 0.07 | 0.01 | 0.01 | 84 | 1005.8 |
| 20260831052258 | 70 | 179 | 1.0 | 3.0 | 0.00 | 0.00 | 0.00 | 84 | 1005.8 |
| 20260831051757 | 70 | 189 | 1.0 | 3.0 | 0.00 | 0.00 | 0.00 | 85 | 1005.9 |
| 20260831051256 | 70 | 158 | 1.0 | 2.0 | 0.00 | 0.00 | 0.00 | 85 | 1005.9 |
| 20260831050750 | 70 | 212 | 1.0 | 2.0 | 0.00 | 0.00 | 0.00 | 85 | 1005.9 |
| 20260831050249 | 70 | 194 | 2.0 | 3.0 | 0.00 | 0.00 | 0.00 | 85 | 1006.1 |
| 20260831045744 | 70 | 110 | 3.0 | 6.0 | 0.00 | 0.00 | 0.00 | 86 | 1005.9 |
| 20260831045239 | 70 | 196 | 1.0 | 2.0 | 0.00 | 0.00 | 0.00 | 86 | 1006.0 |
| 20260831044733 | 70 | 170 | 0.0 | 3.0 | 0.00 | 0.00 | 0.00 | 86 | 1005.9 |
| 20260831044228 | 70 | 216 | 0.0 | 1.0 | 0.00 | 0.00 | 0.00 | 86 | 1006.5 |
| 20260831043724 | 70 | 201 | 1.0 | 2.0 | 0.00 | 0.00 | 0.00 | 87 | 1006.3 |
| 20260831043219 | 70 | 211 | 0.0 | 5.0 | 0.00 | 0.00 | 0.00 | 87 | 1006.3 |
| 20260831042719 | 70 | 197 | 0.0 | 1.0 | 0.00 | 0.00 | 0.00 | 87 | 1006.7 |
| 20260831042214 | 70 | 190 | 1.0 | 2.0 | 0.00 | 0.00 | 0.00 | 88 | 1006.6 |
| 20260831041709 | 70 | 191 | 0.0 | 1.0 | 0.00 | 0.00 | 0.00 | 88 | 1006.6 |
| 20260831041208 | 70 | 303 | 0.0 | 1.0 | 0.00 | 0.00 | 0.00 | 88 | 1007.0 |
| 20260831040703 | 70 | 203 | 0.0 | 2.0 | 0.00 | 0.00 | 0.00 | 88 | 1007.5 |
| 20260831040202 | 70 | 202 | 2.0 | 2.0 | 0.00 | 0.00 | 0.00 | 89 | 1007.5 |
| 20260831035701 | 70 | 212 | 1.0 | 2.0 | 0.00 | 0.00 | 0.00 | 89 | 1007.6 |
| 20260831035155 | 70 | 188 | 1.0 | 2.0 | 0.00 | 0.00 | 0.00 | 89 | 1007.7 |
| 20260831034654 | 70 | 184 | 1.0 | 3.0 | 0.00 | 0.00 | 0.00 | 89 | 1007.9 |
| 20260831034150 | 70 | 193 | 0.0 | 2.0 | 0.00 | 0.00 | 0.00 | 89 | 1008.0 |
| 20260831033646 | 70 | 170 | 1.0 | 3.0 | 0.00 | 0.00 | 0.00 | 89 | 1007.9 |
| 20260831033140 | 70 | 156 | 1.0 | 5.0 | 0.00 | 0.00 | 0.00 | 89 | 1007.9 |
| 20260831032635 | 70 | 176 | 3.0 | 3.0 | 0.00 | 0.00 | 0.00 | 88 | 1008.0 |
| 20260831032130 | 70 | 198 | 3.0 | 3.0 | 0.00 | 0.00 | 0.00 | 87 | 1008.0 |
| 20260831031630 | 71 | 208 | 1.0 | 6.0 | 0.00 | 0.00 | 0.00 | 86 | 1008.1 |
| 20260831031130 | 71 | 166 | 2.0 | 3.0 | 0.00 | 0.00 | 0.00 | 84 | 1008.1 |
| 20260831030628 | 71 | 121 | 3.0 | 5.0 | 0.00 | 0.00 | 0.00 | 83 | 1008.1 |
| 20260831030128 | 72 | 171 | 3.0 | 7.0 | 0.00 | 0.00 | 0.00 | 82 | 1008.3 |
| 20260831025626 | 72 | 132 | 3.0 | 5.0 | 0.00 | 0.00 | 0.00 | 82 | 1008.5 |
| 20260831025121 | 72 | 175 | 2.0 | 5.0 | 0.00 | 0.00 | 0.00 | 81 | 1008.5 |
| 20260831024618 | 72 | 188 | 2.0 | 5.0 | 0.00 | 0.00 | 0.00 | 80 | 1008.6 |
| 20260831024116 | 73 | 219 | 3.0 | 5.0 | 0.00 | 0.00 | 0.00 | 80 | 1008.6 |
| 20260831023615 | 73 | 145 | 3.0 | 5.0 | 0.00 | 0.00 | 0.00 | 79 | 1008.6 |
| 20260831023114 | 74 | 164 | 4.0 | 8.0 | 0.00 | 0.00 | 0.00 | 77 | 1008.4 |
| 20260831022609 | 74 | 199 | 3.0 | 6.0 | 0.00 | 0.00 | 0.00 | 76 | 1008.5 |
| 20260831022104 | 74 | 186 | 2.0 | 6.0 | 0.00 | 0.00 | 0.00 | 76 | 1008.2 |
| 20260831021603 | 74 | 177 | 2.0 | 5.0 | 0.00 | 0.00 | 0.00 | 76 | 1008.3 |
| 20260831021059 | 74 | 160 | 2.0 | 5.0 | 0.00 | 0.00 | 0.00 | 76 | 1008.0 |
| 20260831020554 | 74 | 184 | 4.0 | 6.0 | 0.00 | 0.00 | 0.00 | 76 | 1008.0 |
| 20260831020049 | 74 | 172 | 1.0 | 5.0 | 0.00 | 0.00 | 0.00 | 75 | 1008.0 |
| 20260831015544 | 74 | 139 | 2.0 | 3.0 | 0.00 | 0.00 | 0.00 | 75 | 1008.3 |
| 20260831015039 | 74 | 126 | 3.0 | 6.0 | 0.00 | 0.00 | 0.00 | 74 | 1008.3 |
| 20260831014534 | 75 | 213 | 1.0 | 3.0 | 0.00 | 0.00 | 0.00 | 74 | 1008.3 |
| 20260831014029 | 75 | 134 | 3.0 | 5.0 | 0.00 | 0.00 | 0.00 | 74 | 1008.1 |
| 20260831013525 | 75 | 201 | 1.0 | 3.0 | 0.00 | 0.00 | 0.00 | 74 | 1008.1 |
| 20260831013020 | 75 | 224 | 2.0 | 5.0 | 0.00 | 0.00 | 0.00 | 74 | 1007.8 |
| 20260831012514 | 75 | 192 | 1.0 | 3.0 | 0.00 | 0.00 | 0.00 | 73 | 1007.9 |
| 20260831012014 | 75 | 180 | 1.0 | 2.0 | 0.00 | 0.00 | 0.00 | 73 | 1008.2 |
| 20260831011509 | 75 | 217 | 3.0 | 3.0 | 0.00 | 0.00 | 0.00 | 73 | 1008.5 |
| 20260831011004 | 75 | 197 | 1.0 | 2.0 | 0.00 | 0.00 | 0.00 | 72 | 1008.5 |
| 20260831010459 | 76 | 157 | 2.0 | 5.0 | 0.00 | 0.00 | 0.00 | 72 | 1008.5 |
| 20260831005955 | 76 | 203 | 3.0 | 5.0 | 0.00 | 0.00 | 0.00 | 71 | 1008.7 |
| 20260831005450 | 76 | 195 | 4.0 | 5.0 | 0.00 | 0.00 | 0.00 | 71 | 1008.4 |
| 20260831004949 | 76 | 107 | 2.0 | 6.0 | 0.00 | 0.00 | 0.00 | 70 | 1008.6 |
| 20260831004446 | 76 | 138 | 2.0 | 3.0 | 0.00 | 0.00 | 0.00 | 69 | 1008.5 |
| 20260831003942 | 77 | 180 | 1.0 | 5.0 | 0.00 | 0.00 | 0.00 | 69 | 1008.5 |
| 20260831003438 | 77 | 159 | 3.0 | 3.0 | 0.00 | 0.00 | 0.00 | 69 | 1008.9 |
| 20260831002937 | 77 | 207 | 3.0 | 7.0 | 0.00 | 0.00 | 0.00 | 68 | 1008.8 |
| 20260831002436 | 77 | 171 | 1.0 | 5.0 | 0.00 | 0.00 | 0.00 | 68 | 1008.8 |
| 20260831001932 | 77 | 181 | 2.0 | 7.0 | 0.00 | 0.00 | 0.00 | 68 | 1008.7 |
| 20260831001427 | 77 | 267 | 2.0 | 3.0 | 0.00 | 0.00 | 0.00 | 67 | 1008.8 |
| 20260831000924 | 78 | 161 | 2.0 | 3.0 | 0.00 | 0.00 | 0.00 | 67 | 1008.7 |
| 20260831000420 | 78 | 102 | 2.0 | 5.0 | 0.00 | 0.00 | 0.00 | 66 | 1009.0 |
| 20260830235918 | 78 | 130 | 2.0 | 2.0 | 0.00 | 0.00 | 0.00 | 66 | 1008.7 |
| 20260830235413 | 79 | 176 | 1.0 | 7.0 | 0.00 | 0.00 | 0.00 | 65 | 1008.6 |
| 20260830234908 | 79 | 190 | 2.0 | 5.0 | 0.00 | 0.00 | 0.00 | 64 | 1008.8 |
| 20260830234403 | 79 | 196 | 2.0 | 3.0 | 0.00 | 0.00 | 0.00 | 64 | 1008.7 |
| 20260830233859 | 80 | 208 | 1.0 | 5.0 | 0.00 | 0.00 | 0.00 | 63 | 1008.7 |
| 20260830233354 | 79 | 161 | 4.0 | 7.0 | 0.00 | 0.00 | 0.00 | 63 | 1008.5 |
| 20260830232850 | 80 | 172 | 1.0 | 5.0 | 0.00 | 0.00 | 0.00 | 62 | 1008.7 |
| 20260830232345 | 81 | 201 | 4.0 | 6.0 | 0.00 | 0.00 | 0.00 | 61 | 1008.5 |
| 20260830231842 | 80 | 150 | 2.0 | 5.0 | 0.00 | 0.00 | 0.00 | 61 | 1008.7 |
| 20260830231337 | 80 | 332 | 2.0 | 3.0 | 0.00 | 0.00 | 0.00 | 62 | 1008.7 |
| 20260830230836 | 80 | 205 | 2.0 | 6.0 | 0.00 | 0.00 | 0.00 | 61 | 1008.8 |
| 20260830230332 | 80 | 197 | 2.0 | 6.0 | 0.00 | 0.00 | 0.00 | 62 | 1009.0 |
| 20260830225831 | 80 | 192 | 2.0 | 5.0 | 0.00 | 0.00 | 0.00 | 62 | 1008.9 |
| 20260830225326 | 80 | 185 | 5.0 | 6.0 | 0.00 | 0.00 | 0.00 | 62 | 1008.8 |
| 20260830224827 | 80 | 173 | 3.0 | 6.0 | 0.00 | 0.00 | 0.00 | 61 | 1008.9 |
| 20260830224321 | 81 | 128 | 3.0 | 7.0 | 0.00 | 0.00 | 0.00 | 60 | 1009.0 |
| 20260830223818 | 81 | 198 | 2.0 | 2.0 | 0.00 | 0.00 | 0.00 | 60 | 1009.3 |
| 20260830223314 | 81 | 144 | 3.0 | 5.0 | 0.00 | 0.00 | 0.00 | 59 | 1009.4 |
| 20260830222807 | 80 | 117 | 2.0 | 6.0 | 0.00 | 0.00 | 0.00 | 59 | 1009.3 |
| 20260830222306 | 80 | 164 | 3.0 | 5.0 | 0.00 | 0.00 | 0.00 | 59 | 1009.4 |
| 20260830221758 | 80 | 213 | 1.0 | 10.0 | 0.00 | 0.00 | 0.00 | 59 | 1009.6 |
| 20260830221255 | 80 | 121 | 4.0 | 8.0 | 0.00 | 0.00 | 0.00 | 59 | 1009.5 |
| 20260830220756 | 80 | 162 | 3.0 | 6.0 | 0.00 | 0.00 | 0.00 | 60 | 1009.4 |
| 20260830220255 | 81 | 169 | 2.0 | 5.0 | 0.00 | 0.00 | 0.00 | 59 | 1009.5 |
| 20260830215753 | 81 | 185 | 3.0 | 11.0 | 0.00 | 0.00 | 0.00 | 59 | 1009.7 |
| 20260830215248 | 82 | 110 | 2.0 | 6.0 | 0.00 | 0.00 | 0.00 | 57 | 1009.9 |
| 20260830214743 | 82 | 192 | 3.0 | 13.0 | 0.00 | 0.00 | 0.00 | 56 | 1009.8 |
| 20260830214243 | 82 | 115 | 1.0 | 3.0 | 0.00 | 0.00 | 0.00 | 57 | 1009.8 |
| 20260830213742 | 81 | 210 | 2.0 | 7.0 | 0.00 | 0.00 | 0.00 | 58 | 1009.8 |
| 20260830213237 | 81 | 173 | 2.0 | 8.0 | 0.00 | 0.00 | 0.00 | 58 | 1009.8 |
| 20260830212733 | 81 | 129 | 4.0 | 6.0 | 0.00 | 0.00 | 0.00 | 58 | 1010.0 |
| 20260830212229 | 81 | 178 | 3.0 | 5.0 | 0.00 | 0.00 | 0.00 | 58 | 1010.2 |
| 20260830211728 | 81 | 79 | 4.0 | 7.0 | 0.00 | 0.00 | 0.00 | 58 | 1010.4 |
| 20260830211228 | 81 | 170 | 2.0 | 7.0 | 0.00 | 0.00 | 0.00 | 60 | 1010.6 |
| 20260830210724 | 81 | 171 | 1.0 | 5.0 | 0.00 | 0.00 | 0.00 | 60 | 1010.4 |
| 20260830210223 | 81 | 206 | 2.0 | 6.0 | 0.00 | 0.00 | 0.00 | 60 | 1010.4 |
| 20260830205720 | 81 | 106 | 3.0 | 5.0 | 0.00 | 0.00 | 0.00 | 60 | 1010.6 |
| 20260830205215 | 81 | 188 | 4.0 | 6.0 | 0.00 | 0.00 | 0.00 | 60 | 1010.5 |
| 20260830204710 | 80 | 158 | 2.0 | 3.0 | 0.00 | 0.00 | 0.00 | 60 | 1010.4 |
| 20260830204209 | 80 | 185 | 3.0 | 5.0 | 0.00 | 0.00 | 0.00 | 60 | 1010.5 |
| 20260830203706 | 80 | 156 | 2.0 | 6.0 | 0.00 | 0.00 | 0.00 | 60 | 1010.5 |
| 20260830203201 | 80 | 157 | 3.0 | 7.0 | 0.00 | 0.00 | 0.00 | 59 | 1010.5 |
| 20260830202700 | 81 | 173 | 3.0 | 5.0 | 0.00 | 0.00 | 0.00 | 59 | 1010.8 |
| 20260830202156 | 81 | 220 | 3.0 | 5.0 | 0.00 | 0.00 | 0.00 | 58 | 1010.7 |
| 20260830201655 | 81 | 227 | 1.0 | 5.0 | 0.00 | 0.00 | 0.00 | 58 | 1010.6 |
| 20260830201150 | 81 | 182 | 1.0 | 7.0 | 0.00 | 0.00 | 0.00 | 57 | 1010.6 |
| 20260830200646 | 81 | 164 | 3.0 | 5.0 | 0.00 | 0.00 | 0.00 | 58 | 1010.7 |
| 20260830200145 | 82 | 177 | 5.0 | 8.0 | 0.00 | 0.00 | 0.00 | 58 | 1010.5 |
| 20260830195640 | 82 | 142 | 2.0 | 5.0 | 0.00 | 0.00 | 0.00 | 60 | 1010.7 |
| 20260830195138 | 82 | 223 | 1.0 | 5.0 | 0.00 | 0.00 | 0.00 | 62 | 1010.5 |
| 20260830194638 | 82 | 148 | 2.0 | 5.0 | 0.00 | 0.00 | 0.00 | 61 | 1010.6 |
| 20260830194137 | 83 | 134 | 3.0 | 5.0 | 0.00 | 0.00 | 0.00 | 60 | 1010.6 |
| 20260830193632 | 83 | 149 | 2.0 | 5.0 | 0.00 | 0.00 | 0.00 | 59 | 1010.6 |
| 20260830193127 | 83 | 203 | 3.0 | 7.0 | 0.00 | 0.00 | 0.00 | 59 | 1010.7 |
| 20260830192622 | 83 | 184 | 3.0 | 6.0 | 0.00 | 0.00 | 0.00 | 60 | 1010.8 |
| 20260830192117 | 84 | 179 | 2.0 | 3.0 | 0.00 | 0.00 | 0.00 | 60 | 1010.7 |
| 20260830191612 | 84 | 140 | 1.0 | 6.0 | 0.00 | 0.00 | 0.00 | 60 | 1010.7 |
| 20260830191108 | 83 | 208 | 2.0 | 7.0 | 0.00 | 0.00 | 0.00 | 60 | 1010.7 |
| 20260830190603 | 83 | 200 | 2.0 | 3.0 | 0.00 | 0.00 | 0.00 | 61 | 1010.6 |
| 20260830190058 | 83 | 98 | 4.0 | 6.0 | 0.00 | 0.00 | 0.00 | 61 | 1010.8 |
| 20260830185551 | 84 | 144 | 4.0 | 6.0 | 0.00 | 0.00 | 0.00 | 60 | 1010.6 |
| 20260830185047 | 84 | 138 | 3.0 | 6.0 | 0.00 | 0.00 | 0.00 | 60 | 1010.8 |
| 20260830184546 | 84 | 218 | 2.0 | 5.0 | 0.00 | 0.00 | 0.00 | 60 | 1011.0 |
| 20260830184040 | 84 | 222 | 2.0 | 7.0 | 0.00 | 0.00 | 0.00 | 60 | 1011.0 |
| 20260830183535 | 84 | 215 | 2.0 | 6.0 | 0.00 | 0.00 | 0.00 | 60 | 1011.0 |
| 20260830183031 | 84 | 121 | 3.0 | 5.0 | 0.00 | 0.00 | 0.00 | 60 | 1010.9 |
| 20260830182527 | 83 | 138 | 3.0 | 5.0 | 0.00 | 0.00 | 0.00 | 61 | 1011.2 |
| 20260830182023 | 82 | 131 | 2.0 | 8.0 | 0.00 | 0.00 | 0.00 | 61 | 1011.2 |
| 20260830181519 | 82 | 118 | 2.0 | 5.0 | 0.00 | 0.00 | 0.00 | 62 | 1011.2 |
| 20260830181018 | 82 | 163 | 2.0 | 6.0 | 0.00 | 0.00 | 0.00 | 62 | 1011.4 |
| 20260830180517 | 82 | 172 | 5.0 | 8.0 | 0.00 | 0.00 | 0.00 | 62 | 1011.3 |
| 20260830180017 | 82 | 217 | 2.0 | 7.0 | 0.00 | 0.00 | 0.00 | 63 | 1011.3 |
| 20260830175516 | 81 | 157 | 4.0 | 5.0 | 0.00 | 0.00 | 0.00 | 63 | 1011.7 |
| 20260830175012 | 82 | 94 | 3.0 | 5.0 | 0.00 | 0.00 | 0.00 | 62 | 1011.7 |
| 20260830174507 | 81 | 174 | 2.0 | 3.0 | 0.00 | 0.00 | 0.00 | 63 | 1011.7 |
| 20260830174002 | 81 | 172 | 3.0 | 7.0 | 0.00 | 0.00 | 0.00 | 62 | 1011.7 |
| 20260830173458 | 82 | 169 | 2.0 | 7.0 | 0.00 | 0.00 | 0.00 | 61 | 1011.8 |
| 20260830172952 | 82 | 201 | 1.0 | 5.0 | 0.00 | 0.00 | 0.00 | 63 | 1011.9 |
| 20260830172449 | 82 | 182 | 2.0 | 5.0 | 0.00 | 0.00 | 0.00 | 61 | 1011.7 |
| 20260830171944 | 82 | 142 | 2.0 | 7.0 | 0.00 | 0.00 | 0.00 | 63 | 1011.9 |
| 20260830171440 | 82 | 188 | 3.0 | 6.0 | 0.00 | 0.00 | 0.00 | 62 | 1012.1 |
| 20260830170934 | 83 | 195 | 3.0 | 6.0 | 0.00 | 0.00 | 0.00 | 62 | 1012.0 |
| 20260830170434 | 83 | 141 | 3.0 | 5.0 | 0.00 | 0.00 | 0.00 | 63 | 1011.9 |
| 20260830165931 | 82 | 130 | 2.0 | 6.0 | 0.00 | 0.00 | 0.00 | 64 | 1012.0 |
| 20260830165429 | 82 | 197 | 1.0 | 2.0 | 0.00 | 0.00 | 0.00 | 66 | 1012.0 |
| 20260830164924 | 82 | 193 | 2.0 | 5.0 | 0.00 | 0.00 | 0.00 | 65 | 1012.2 |
| 20260830164420 | 81 | 129 | 3.0 | 6.0 | 0.00 | 0.00 | 0.00 | 66 | 1012.3 |
| 20260830163916 | 81 | 181 | 4.0 | 6.0 | 0.00 | 0.00 | 0.00 | 67 | 1012.2 |
| 20260830163413 | 80 | 167 | 2.0 | 6.0 | 0.00 | 0.00 | 0.00 | 68 | 1012.3 |
| 20260830162912 | 81 | 189 | 3.0 | 5.0 | 0.00 | 0.00 | 0.00 | 68 | 1012.2 |
| 20260830162408 | 81 | 214 | 1.0 | 6.0 | 0.00 | 0.00 | 0.00 | 68 | 1012.1 |
| 20260830161908 | 81 | 192 | 2.0 | 3.0 | 0.00 | 0.00 | 0.00 | 69 | 1012.1 |
| 20260830161408 | 80 | 113 | 1.0 | 3.0 | 0.00 | 0.00 | 0.00 | 70 | 1012.0 |
| 20260830160903 | 79 | 196 | 1.0 | 3.0 | 0.00 | 0.00 | 0.00 | 70 | 1012.3 |
| 20260830160359 | 78 | 151 | 2.0 | 3.0 | 0.00 | 0.00 | 0.00 | 71 | 1012.5 |
| 20260830155854 | 78 | 190 | 2.0 | 3.0 | 0.00 | 0.00 | 0.00 | 72 | 1012.4 |
| 20260830155350 | 77 | 170 | 1.0 | 6.0 | 0.00 | 0.00 | 0.00 | 73 | 1012.5 |
| 20260830154845 | 77 | 206 | 1.0 | 2.0 | 0.00 | 0.00 | 0.00 | 73 | 1012.6 |
| 20260830154341 | 77 | 242 | 1.0 | 2.0 | 0.00 | 0.00 | 0.00 | 73 | 1012.4 |
| 20260830153838 | 77 | 196 | 1.0 | 2.0 | 0.00 | 0.00 | 0.00 | 73 | 1012.4 |
| 20260830153333 | 77 | 358 | 2.0 | 2.0 | 0.00 | 0.00 | 0.00 | 72 | 1012.5 |
| 20260830152831 | 78 | 6 | 2.0 | 2.0 | 0.00 | 0.00 | 0.00 | 73 | 1012.6 |
| 20260830152326 | 78 | 187 | 1.0 | 2.0 | 0.00 | 0.00 | 0.00 | 73 | 1012.6 |
| 20260830151820 | 77 | 202 | 1.0 | 3.0 | 0.00 | 0.00 | 0.00 | 74 | 1012.6 |
| 20260830151319 | 76 | 181 | 0.0 | 3.0 | 0.00 | 0.00 | 0.00 | 75 | 1012.4 |
| 20260830150815 | 76 | 230 | 1.0 | 3.0 | 0.00 | 0.00 | 0.00 | 76 | 1012.5 |
| 20260830150314 | 75 | 184 | 1.0 | 2.0 | 0.00 | 0.00 | 0.00 | 78 | 1012.5 |
| 20260830145809 | 75 | 186 | 1.0 | 3.0 | 0.00 | 0.00 | 0.00 | 78 | 1012.7 |
| 20260830145306 | 74 | 212 | 0.0 | 2.0 | 0.00 | 0.00 | 0.00 | 79 | 1012.6 |
| 20260830144759 | 74 | 177 | 0.0 | 1.0 | 0.00 | 0.00 | 0.00 | 79 | 1012.7 |
| 20260830144255 | 74 | 208 | 0.0 | 2.0 | 0.00 | 0.00 | 0.00 | 80 | 1012.9 |
| 20260830143751 | 73 | 178 | 0.0 | 1.0 | 0.00 | 0.00 | 0.00 | 80 | 1012.6 |
| 20260830143250 | 73 | 204 | 1.0 | 1.0 | 0.00 | 0.00 | 0.00 | 82 | 1012.7 |
| 20260830142744 | 72 | 206 | 0.0 | 1.0 | 0.00 | 0.00 | 0.00 | 83 | 1012.7 |
| 20260830142240 | 72 | 187 | 1.0 | 2.0 | 0.00 | 0.00 | 0.00 | 83 | 1012.6 |
| 20260830141735 | 72 | 169 | 0.0 | 1.0 | 0.00 | 0.00 | 0.00 | 84 | 1012.3 |
| 20260830141230 | 71 | 219 | 1.0 | 2.0 | 0.00 | 0.00 | 0.00 | 85 | 1012.6 |
| 20260830140725 | 71 | 212 | 0.0 | 1.0 | 0.00 | 0.00 | 0.00 | 85 | 1012.5 |
| 20260830140220 | 70 | 195 | 0.0 | 0.0 | 0.00 | 0.00 | 0.00 | 86 | 1012.5 |
| 20260830135714 | 70 | 173 | 0.0 | 2.0 | 0.00 | 0.00 | 0.00 | 86 | 1012.5 |
| 20260830135210 | 69 | 193 | 2.0 | 2.0 | 0.00 | 0.00 | 0.00 | 86 | 1012.9 |